STARLINK-32285, 60355

Orbit data source: Space-Track

STARLINK-32285, 60355 is a payload satellite owned by SpaceX/Seattle (US) in LEO that was launched on Sun, 04 Aug 2024 UTC via an FALCON 9 launch vehicle from the Air Force Western Test Range (AFWTR). Payload-class satellites include a variety of spacecraft equipped with specific instruments for various scientific and technological missions. These include communications satellites like Starlink; space stations such as the ISS; scientific satellites like the Hubble; Earth observation satellites from companies like Planet Labs, Umbra, and HawkEye 360; GPS; miniature CubeSats for education and research; and military/defense satellites.

Loading next visibility...
Identifier
60355, 2024-138A
Orbit
LEO
Country
Flag of USUS
Related business
Manufacturer
SpaceX/Seattle
Mission
Operational Commercial Communications
Bus & Motor
STARLINK V2M, Unknown motor
Mass
730 kg wet, ~700 kg dry
Launch date (UTC)
2024-08-04 (2 years ago)
Launch vehicle
FALCON 9
Launch site
Air Force Western Test Range (AFWTR)
Object type
Payload
Rocket body
Debris
Shape & HBR
Box + 2 Pan, 17.7 m
Radar Cross Section
33.884 m², Large (>1 m²)

Expand to show TLE details & history
Last TLE update: 1 day ago

TLE from 1 day ago
0 STARLINK-32285
1 60355U 24138A   26257.66419648  .00000012  00000-0  11508-4 0  9995
2 60355  53.1612 148.7792 0001653  94.2041 265.9151 15.34391278119601
Epoch: 2026-09-14T15:56Z
TLE epoch observation values (Epoch: 2026-09-14T15:56:26.575Z)
Latitude
-0°
Longitude
-83.97278°
Altitude
463.711 km
Speed
7.636 km/s
True Right ascension
09h 55m 07s
True Declination
0° 00' 00"
Sunlit
Object was in daylight at epoch
Visualization orbit readout
Latitude
Unknown
Longitude
Unknown
Altitude
Unknown
Speed
Unknown
Apparent Right ascension
Unknown
Apparent Declination
Unknown
Sunlit
N/A
Visualization observer readout
Local Sidereal Time
08:41:24
Azimuth
Unknown
Elevation
Unknown
Doppler factor
Unknown
Orbital elements
Apogee altitude
464.117 km
Perigee altitude
461.855 km
Semi-major axis
6,841.123 km
Eccentricity
0.00017
Inclination
53.1612°
RAAN
148.7792°
Arg. of periapsis
94.2041°
True anomaly
265.89621°
Mean anomaly
265.9151°
Eccentric anomaly
265.90565°
Mean motion
3.83577 °/min
Orbital period
93.85 mins
BSTAR
0.000011508
Loading maneuver chart data...
Computing Atmospheric mass density...
Loading historical data...
Loading historical data...
Loading historical data...
Loading historical data...
Loading historical data...
Loading historical data...
Loading historical data...

Documentation

Showing up to 5 results
|